{"data":{"norad_id":58150,"intl_designator":"2023-166A","name":"STARLINK-30802","alt_names":[],"object_type":"PAYLOAD","status":"ACTIVE","operator":null,"country":"US","launch_date":"2023-10-29","launch_site_code":"AFWTR","launch_vehicle":null,"mission":null,"orbit_class":"UNKNOWN","rcs_meters":null,"size_class":null,"mass_kg":null,"dimensions":null,"purposes":["comms"],"wikipedia_slug":null,"has_3d_model":false,"image_url":null,"decayed_at":null,"tle_current":{"epoch":"2026-05-24T22:35:46.819968Z","epoch_age_seconds":73972,"freshness":"FRESH","line1":"1 58150U 23166A   26144.94151412 -.00001638  00000+0 -41070-4 0  9996","line2":"2 58150  53.1605 225.4310 0000150  95.3640 264.7378 15.31692744144852","mean_motion":15.31692744,"eccentricity":1.5e-5,"inclination_deg":53.1605,"raan_deg":225.431,"arg_perigee_deg":95.364,"mean_anomaly_deg":264.7378,"bstar":-4.107e-5,"rev_number":14485,"period_min":94.013633324361,"perigee_km":470.65889159009,"apogee_km":470.86435854884,"semimajor_km":6848.8986250695,"source":"CELESTRAK","updated_at":"2026-05-25T13:38:18.535842Z"}}}